Voltar ao catálogo

CZ-6A DEB

AtivoPO
NORAD 61836·DEBRIS·🇨🇳 China

Lançado Aug 6, 2024 de Taiyuan Satellite Launch Center

Loading…

Próximas Passagens (próximas 24 horas)

TLE

AtualizadoSource: Space-Track

Época: Sep 14, 2026, 00:42 UTC

1 61836U 24140ADC 26257.02985939  .00004063  00000-0  75324-3 0  9999
2 61836  89.0568 265.0147 0084549 306.9525  52.3967 14.62816219105915

Acompanhe CZ-6A DEB em tempo real com AllMySat

Download on the App Store